TimeCDT,TemperatureF,Dew PointF,Humidity,Sea Level PressureIn,VisibilityMPH,Wind Direction,Wind SpeedMPH,Gust SpeedMPH,PrecipitationIn,Events,Conditions,WindDirDegrees,DateUTC
12:53 AM,61.0,57.9,90,29.98,10.0,NW,10.4,-,N/A,,Clear,320,2013-09-02 05:53:00
1:53 AM,59.0,57.0,93,29.98,10.0,NW,9.2,-,N/A,,Clear,320,2013-09-02 06:53:00
2:53 AM,57.0,55.0,93,29.99,10.0,NW,9.2,-,N/A,,Clear,320,2013-09-02 07:53:00
3:53 AM,55.0,54.0,96,30.00,10.0,NW,8.1,-,N/A,,Clear,320,2013-09-02 08:53:00
4:53 AM,54.0,54.0,100,30.01,10.0,NW,6.9,-,N/A,,Clear,320,2013-09-02 09:53:00
5:30 AM,53.6,53.6,100,30.04,4.0,NW,10.4,-,N/A,,Scattered Clouds,320,2013-09-02 10:30:00
5:34 AM,53.6,53.6,100,30.04,2.5,NW,10.4,-,N/A,,Mostly Cloudy,320,2013-09-02 10:34:00
5:42 AM,53.6,53.6,100,30.04,1.0,NW,9.2,-,N/A,,Mostly Cloudy,320,2013-09-02 10:42:00
5:53 AM,54.0,54.0,100,30.02,1.0,NW,8.1,-,N/A,,Overcast,320,2013-09-02 10:53:00
6:19 AM,53.6,53.6,100,30.05,3.0,NW,8.1,-,N/A,,Overcast,320,2013-09-02 11:19:00
6:53 AM,54.0,54.0,100,30.04,4.0,NW,8.1,-,N/A,,Overcast,320,2013-09-02 11:53:00
7:53 AM,55.0,54.0,96,30.06,10.0,NW,9.2,-,N/A,,Mostly Cloudy,320,2013-09-02 12:53:00
8:02 AM,55.4,53.6,94,30.08,10.0,NNW,9.2,-,N/A,,Partly Cloudy,330,2013-09-02 13:02:00
8:53 AM,57.9,54.0,87,30.06,10.0,NNW,9.2,-,N/A,,Clear,340,2013-09-02 13:53:00
9:53 AM,62.1,54.0,75,30.07,10.0,NNW,8.1,-,N/A,,Partly Cloudy,340,2013-09-02 14:53:00
10:53 AM,66.0,52.0,60,30.07,10.0,North,13.8,-,N/A,,Partly Cloudy,10,2013-09-02 15:53:00
11:25 AM,68.0,51.8,56,30.10,10.0,North,10.4,16.1,N/A,,Mostly Cloudy,350,2013-09-02 16:25:00
11:45 AM,68.0,51.8,56,30.10,10.0,North,10.4,18.4,N/A,,Scattered Clouds,350,2013-09-02 16:45:00
11:53 AM,68.0,51.1,55,30.08,10.0,NNW,12.7,-,N/A,,Partly Cloudy,340,2013-09-02 16:53:00
12:53 PM,70.0,51.1,51,30.06,10.0,North,11.5,18.4,N/A,,Clear,360,2013-09-02 17:53:00
1:53 PM,70.0,51.1,51,30.05,10.0,NNW,10.4,-,N/A,,Clear,340,2013-09-02 18:53:00
2:53 PM,72.0,52.0,49,30.04,10.0,North,10.4,-,N/A,,Clear,360,2013-09-02 19:53:00
3:53 PM,72.0,51.1,48,30.04,10.0,NNE,5.8,-,N/A,,Clear,20,2013-09-02 20:53:00
4:53 PM,71.1,53.1,53,30.04,10.0,North,10.4,-,N/A,,Clear,10,2013-09-02 21:53:00
5:53 PM,68.0,54.0,61,30.04,10.0,NE,9.2,-,N/A,,Clear,40,2013-09-02 22:53:00
6:53 PM,64.9,54.0,68,30.04,10.0,NE,6.9,-,N/A,,Clear,40,2013-09-02 23:53:00
7:53 PM,57.9,53.1,84,30.06,10.0,ENE,3.5,-,N/A,,Clear,70,2013-09-03 00:53:00
8:53 PM,54.0,51.1,90,30.06,10.0,ENE,4.6,-,N/A,,Clear,60,2013-09-03 01:53:00
9:53 PM,50.0,48.0,93,30.08,10.0,ENE,4.6,-,N/A,,Clear,70,2013-09-03 02:53:00
10:53 PM,50.0,48.9,96,30.08,10.0,Calm,Calm,-,N/A,,Clear,0,2013-09-03 03:53:00
11:53 PM,46.9,46.9,100,30.08,10.0,Calm,Calm,-,N/A,,Clear,0,2013-09-03 04:53:00